sat.trackr.live / text

‹ back to catalog

STARLINK-33759

NORAD 64007 · 2025-101P

PAYLOAD ACTIVE UNKNOWN

§ Identity

Operator
Country
US
Launch date
2025-05-14
Launch site
AFETR
Launch vehicle
Mass (kg)
RCS (m²)

Purposes: comms

External: N2YO · Heavens-Above · Gunter

§ Orbital elements

Epoch: 2026-09-20T21:45:02.693088Z

Period
94.27 min
Inclination
43.0019°
Eccentricity
0.0001438
Mean motion
15.27593454 rev/d
Perigee alt
482.0 km
Apogee alt
484.0 km
Semi-major
6,861.1 km
B*
4.3018e-4
RAAN
335.2597°
Arg perigee
270.2780°
Mean anomaly
89.7907°
Rev number
7,691

§ Raw data

STARLINK-337591 64007U 25101P   26263.90628117  .00011599  00000+0  43018-3 0  99922 64007  43.0019 335.2597 0001438 270.2780  89.7907 15.27593454 76910

JSON: /api/v1/satellites/64007 · /tle

For live sub-satellite position, see the globe view (requires WebGL).

§ Visibility from observer

Set your observer location to see the next 7 days of passes ≥ 10°. The values pass through the URL so the page stays shareable.

No JS? Fill the form by hand. The geolocation button needs JavaScript.